Date,TemperatureHighF,TemperatureAvgF,TemperatureLowF,DewpointHighF,DewpointAvgF,DewpointLowF,HumidityHigh,HumidityAvg,HumidityLow,PressureMaxIn,PressureMinIn,WindSpeedMaxMPH,WindSpeedAvgMPH,GustSpeedMaxMPH,PrecipitationSumIn
2013-10-1,86.2,63.9,47.5,68.0,57.5,47.2,99,83,43,29.99,29.88,5,0,0,0.00
2013-10-2,87.1,66.9,52.9,66.7,59.8,52.6,99,82,44,30.00,29.91,5,1,0,0.00
2013-10-3,87.4,68.9,54.1,68.8,62.4,53.8,99,83,50,30.00,29.93,3,0,0,0.00
2013-10-4,88.3,71.2,58.6,70.5,64.7,58.3,99,83,48,29.99,29.91,4,0,0,0.00
2013-10-5,92.5,71.9,57.9,71.1,64.9,57.6,99,83,41,29.97,29.89,3,0,0,0.00
2013-10-6,84.2,71.4,59.7,73.9,68.2,59.4,99,91,66,29.94,29.81,4,1,0,0.00
2013-10-7,76.8,70.8,65.5,74.3,70.0,63.1,99,98,89,29.85,29.72,5,2,0,0.25
2013-10-8,65.5,60.0,56.3,62.5,53.2,48.7,94,79,69,30.06,29.84,9,3,0,0.02
2013-10-9,63.3,58.5,55.0,57.9,54.8,51.9,99,88,80,30.04,29.93,12,5,0,0.07
2013-10-10,59.5,56.7,53.8,59.2,56.3,53.5,99,99,97,29.92,29.79,10,5,0,0.41
2013-10-11,66.2,61.8,58.8,62.9,60.7,58.5,99,96,89,29.82,29.75,7,2,0,0.01
2013-10-12,70.9,64.8,61.3,67.1,63.8,61.0,99,97,87,29.94,29.81,5,2,0,0.00
2013-10-13,68.5,64.6,62.4,66.5,63.9,62.1,99,98,92,30.06,29.92,8,3,0,0.12
2013-10-14,67.1,62.6,55.9,64.1,61.5,55.6,99,96,88,30.09,30.03,7,2,0,0.09
2013-10-15,72.1,61.5,50.5,63.5,58.7,50.2,99,91,73,30.05,29.91,6,2,0,0.00
2013-10-16,73.2,65.8,59.5,66.0,63.2,59.2,99,92,74,29.92,29.82,4,0,0,0.00
2013-10-17,78.3,67.1,57.4,67.1,63.1,57.1,99,88,63,29.82,29.70,5,1,0,0.00
2013-10-18,71.4,63.3,55.2,66.1,56.2,48.4,99,80,52,30.06,29.73,6,1,0,0.00
2013-10-19,72.3,64.0,59.5,67.2,62.6,58.6,99,95,83,30.00,29.84,3,0,0,0.00
2013-10-20,65.1,54.1,40.8,59.2,47.1,40.5,99,81,43,30.15,29.93,7,1,0,0.01
2013-10-21,67.6,50.1,34.3,53.9,44.5,34.0,99,84,47,30.21,30.03,4,0,0,0.00
2013-10-22,65.3,55.6,47.3,60.3,54.1,47.0,99,95,81,30.03,29.84,2,0,0,0.00
2013-10-23,67.5,58.0,47.5,58.9,48.7,35.6,99,75,40,30.01,29.71,10,3,0,0.00
2013-10-24,59.0,46.2,32.4,42.7,36.1,32.2,99,71,40,30.20,30.02,9,2,0,0.00
2013-10-25,55.2,44.1,31.5,41.4,34.0,28.9,99,72,37,30.39,30.20,8,2,0,0.00
2013-10-26,59.5,41.2,25.5,40.7,32.2,25.0,99,76,34,30.38,30.10,6,1,0,0.00
2013-10-27,66.9,50.4,37.6,48.2,42.1,37.3,99,78,41,30.15,30.07,6,1,0,0.00
2013-10-28,72.5,53.9,38.7,56.9,48.7,38.4,99,85,49,30.28,30.15,3,0,0,0.00
2013-10-29,74.8,57.6,44.4,58.3,52.7,44.1,99,86,54,30.35,30.26,3,0,0,0.00
2013-10-30,75.4,60.0,49.5,61.3,55.9,49.2,99,88,57,30.32,30.18,4,0,0,0.00
2013-10-31,75.2,64.0,53.1,64.3,58.0,52.8,99,83,56,30.21,29.97,6,1,0,0.00